TimeBST,TemperatureF,Dew PointF,Humidity,Sea Level PressureIn,VisibilityMPH,Wind Direction,Wind SpeedMPH,Gust SpeedMPH,PrecipitationIn,Events,Conditions,WindDirDegrees,DateUTC
12:50 AM,50,46,79,29.70,10,West,9.2,,,,Scattered Clouds,260,2013-09-15 23:50:00
4:50 AM,50.0,44.6,82,29.68,6.2,West,6.9,-,N/A,,Partly Cloudy,280,2013-09-16 03:50:00
5:50 AM,46.4,42.8,87,29.68,6.2,WSW,5.8,-,N/A,,Partly Cloudy,250,2013-09-16 04:50:00
6:20 AM,46.4,42.8,87,29.68,6.2,West,8.1,-,N/A,,Scattered Clouds,270,2013-09-16 05:20:00
6:50 AM,46,44,89,29.70,9,West,6.9,,,Rain,Rain,270,2013-09-16 05:50:00
6:50 AM,46.4,42.8,87,29.68,6.2,West,6.9,-,N/A,,Mostly Cloudy,270,2013-09-16 05:50:00
7:20 AM,48.2,44.6,87,29.68,6.2,NW,6.9,-,N/A,,Mostly Cloudy,310,2013-09-16 06:20:00
7:50 AM,48.2,44.6,87,29.68,-9999.0,SW,4.6,-,N/A,,Clear,220,2013-09-16 06:50:00
8:20 AM,50.0,44.6,82,29.68,-9999.0,WSW,8.1,-,N/A,,Clear,250,2013-09-16 07:20:00
8:50 AM,51.8,44.6,76,29.68,6.2,WNW,13.8,-,N/A,,Partly Cloudy,300,2013-09-16 07:50:00
9:20 AM,53.6,44.6,72,29.68,6.2,West,11.5,-,N/A,,Partly Cloudy,270,2013-09-16 08:20:00
9:50 AM,54,46,66,29.69,19,West,17.3,,,Rain,Rain,270,2013-09-16 08:50:00
9:50 AM,53.6,44.6,72,29.68,6.2,West,17.3,-,N/A,,Partly Cloudy,280,2013-09-16 08:50:00
10:20 AM,53.6,42.8,67,29.68,6.2,WNW,20.7,32.2,N/A,,Partly Cloudy,290,2013-09-16 09:20:00
10:50 AM,53.6,42.8,67,29.68,6.2,West,23.0,-,N/A,,Partly Cloudy,280,2013-09-16 09:50:00
11:20 AM,57.2,44.6,63,29.68,6.2,West,17.3,-,N/A,,Partly Cloudy,270,2013-09-16 10:20:00
11:50 AM,59.0,44.6,59,29.65,6.2,West,19.6,-,N/A,,Partly Cloudy,280,2013-09-16 10:50:00
12:20 PM,57.2,41.0,55,29.65,6.2,West,18.4,-,N/A,,Mostly Cloudy,280,2013-09-16 11:20:00
12:50 PM,57,43,49,29.67,17,WNW,18.4,,,,Mostly Cloudy,290,2013-09-16 11:50:00
12:50 PM,57.2,42.8,59,29.65,6.2,WNW,20.7,-,N/A,Rain,Light Rain Showers,290,2013-09-16 11:50:00
1:20 PM,55.4,44.6,67,29.65,6.2,WNW,13.8,-,N/A,,Mostly Cloudy,300,2013-09-16 12:20:00
1:50 PM,59.0,42.8,55,29.65,6.2,WNW,19.6,-,N/A,,Partly Cloudy,290,2013-09-16 12:50:00
2:20 PM,59.0,39.2,48,29.65,6.2,NW,20.7,-,N/A,,Partly Cloudy,310,2013-09-16 13:20:00
2:50 PM,59.0,39.2,48,29.65,6.2,West,28.8,-,N/A,,Partly Cloudy,280,2013-09-16 13:50:00
3:20 PM,60.8,41.0,48,29.65,6.2,WNW,23.0,34.5,N/A,,Scattered Clouds,290,2013-09-16 14:20:00
3:50 PM,57,38,37,29.66,19,WNW,21.9,,,,Partly Cloudy,300,2013-09-16 14:50:00
4:20 PM,60.8,41.0,48,29.65,6.2,WNW,19.6,-,N/A,,Partly Cloudy,300,2013-09-16 15:20:00
4:50 PM,57.2,41.0,55,29.65,6.2,NW,17.3,-,N/A,,Scattered Clouds,310,2013-09-16 15:50:00
5:20 PM,59.0,37.4,45,29.65,6.2,NW,20.7,-,N/A,,Partly Cloudy,310,2013-09-16 16:20:00
5:50 PM,55.4,41.0,58,29.68,6.2,WNW,13.8,-,N/A,Rain,Light Rain Showers,300,2013-09-16 16:50:00
6:50 PM,52,40,54,29.70,22,WNW,16.1,,,Rain,Rain,290,2013-09-16 17:50:00
6:50 PM,51.8,41.0,67,29.68,6.2,WNW,16.1,-,N/A,,Partly Cloudy,290,2013-09-16 17:50:00
7:20 PM,51.8,41.0,67,29.68,6.2,WNW,11.5,-,N/A,,Scattered Clouds,290,2013-09-16 18:20:00
7:50 PM,50.0,41.0,71,29.68,6.2,West,10.4,-,N/A,,Partly Cloudy,280,2013-09-16 18:50:00
8:20 PM,48.2,41.0,76,29.68,-9999.0,West,6.9,-,N/A,,Clear,270,2013-09-16 19:20:00
8:50 PM,48.2,41.0,76,29.71,-9999.0,WSW,5.8,-,N/A,,Clear,250,2013-09-16 19:50:00
9:20 PM,48.2,42.8,82,29.68,-9999.0,SW,6.9,-,N/A,,Clear,230,2013-09-16 20:20:00
9:50 PM,48.2,41.0,76,29.68,6.2,West,6.9,-,N/A,,Unknown,260,2013-09-16 20:50:00
10:20 PM,48.2,42.8,82,29.68,-9999.0,SW,6.9,-,N/A,,Clear,230,2013-09-16 21:20:00
10:50 PM,48.2,42.8,82,29.68,-9999.0,West,9.2,-,N/A,,Clear,260,2013-09-16 21:50:00
11:20 PM,48.2,42.8,82,29.71,-9999.0,West,6.9,-,N/A,,Clear,270,2013-09-16 22:20:00
11:50 PM,46.4,42.8,87,29.71,6.2,West,8.1,-,N/A,,Unknown,270,2013-09-16 22:50:00